FENGYUN 1C DEB, 31821

Orbit data source: Space-Track

FENGYUN 1C DEB, 31821 is space debris in SSO originally from a launch on Mon, 10 May 1999 UTC launched from the Taiyaun Space Center, China (TSC). Fengyun 1C debris stems from the Chinese weather satellite Fengyun-1C, which was intentionally destroyed by a Chinese anti-satellite missile in 2007. This event dramatically increased the amount of space debris, with thousands of trackable fragments posing hazards to satellites and human spaceflight. The Fengyun 1C debris cloud has become a focal point in discussions about space sustainability and the need for international regulations to prevent the creation of new debris.

Loading next visibility...
Identifier
31821, 1999-025CHK
Orbit
SSO
Country
Flag of CNCN / PRC
Related business
Manufacturer
Unknown
Mission
Spacecraft
Bus & Motor
Unknown
Mass
Unknown
Launch date (UTC)
1999-05-10 (27 years ago)
Launch vehicle
Unknown
Launch site
Taiyaun Space Center, China (TSC)
Object type
Payload
Rocket body
Debris
Shape & HBR
Unknown shape, 0.1 m
Radar Cross Section
Small (<0.1 m²)

Expand to show TLE details & history
Last TLE update: 2 days ago

TLE from 2 days ago
0 FENGYUN 1C DEB
1 31821U 99025CHK 26254.11294318  .00008753  00000-0  17521-2 0  9999
2 31821  98.1463 134.3026 0189969 261.6426  96.3193 14.51197714976009
Epoch: 2026-09-11T02:42Z
TLE epoch observation values (Epoch: 2026-09-11T02:42:38.290Z)
Latitude
-0.00006°
Longitude
103.5021°
Altitude
742.087 km
Speed
7.475 km/s
True Right ascension
08h 57m 12s
True Declination
0° 00' 00"
Sunlit
Object was in daylight at epoch
Visualization orbit readout
Latitude
Unknown
Longitude
Unknown
Altitude
Unknown
Speed
Unknown
Apparent Right ascension
Unknown
Apparent Declination
Unknown
Sunlit
N/A
Visualization observer readout
Local Sidereal Time
10:39:27
Azimuth
Unknown
Elevation
Unknown
Doppler factor
Unknown
Orbital elements
Apogee altitude
853.649 km
Perigee altitude
584.008 km
Semi-major axis
7,096.965 km
Eccentricity
0.019
Inclination
98.1463°
RAAN
134.3026°
Arg. of periapsis
261.6426°
True anomaly
98.47681°
Mean anomaly
96.3193°
Eccentric anomaly
97.39868°
Mean motion
3.63023 °/min
Orbital period
99.17 mins
BSTAR
0.0017521
Loading maneuver chart data...
Computing Atmospheric mass density...
Loading historical data...
Loading historical data...
Loading historical data...
Loading historical data...
Loading historical data...
Loading historical data...
Loading historical data...

Documentation

Showing up to 5 results
|